Location: La Pernelle
(49.6188°N, 1.2999°W)
Time: 15:41:16
(UTC+00:00)

Cosmos 2056 Rocket - Pass Details

Date: 12 June 2021
Orbit: 741 x 801 km, 74.0° (Epoch: 05 August)

Event Time Altitude Azimuth Distance (km) Brightness Sun altitude
Rises 21:42:21 0° 214° (SW) 3,192 6.5 -10.6°
Reaches altitude 10° 21:44:43 10° 218° (SW) 2,280 5.8 -10.8°
Maximum altitude 21:49:49 58° 298° (WNW) 889 4.2 -11.2°
Drops below altitude 10° 21:55:03 10° 18° (NNE) 2,334 6.6 -11.6°
Sets 21:57:31 0° 22° (NNE) 3,275 7.4 -11.8°
